TimeEDT,TemperatureF,Dew PointF,Humidity,Sea Level PressureIn,VisibilityMPH,Wind Direction,Wind SpeedMPH,Gust SpeedMPH,PrecipitationIn,Events,Conditions,WindDirDegrees,DateUTC
12:01 AM,24.1,18.0,77,29.86,10.0,WNW,4.6,-,N/A,,Overcast,300,2013-03-17 04:01:00
12:42 AM,23.0,17.1,78,29.90,10.0,WNW,6.9,-,N/A,,Overcast,290,2013-03-17 04:42:00
12:53 AM,23.0,17.1,78,29.96,10.0,NW,9.2,-,N/A,,Overcast,310,2013-03-17 04:53:00
1:53 AM,23.0,17.1,78,29.97,10.0,NW,8.1,-,N/A,,Overcast,310,2013-03-17 05:53:00
2:42 AM,21.9,16.0,78,29.92,10.0,NNW,10.4,-,N/A,,Overcast,330,2013-03-17 06:42:00
2:53 AM,21.0,15.1,78,30.00,10.0,NW,8.1,-,N/A,,Overcast,310,2013-03-17 06:53:00
3:04 AM,21.0,14.0,74,29.93,10.0,NW,6.9,-,N/A,,Overcast,310,2013-03-17 07:04:00
3:53 AM,21.0,15.1,78,30.01,10.0,Calm,Calm,-,N/A,,Overcast,0,2013-03-17 07:53:00
4:53 AM,21.0,15.1,78,30.01,10.0,West,4.6,-,N/A,,Overcast,270,2013-03-17 08:53:00
5:53 AM,21.0,15.1,78,30.03,4.0,WNW,6.9,-,0.00,Snow,Light Snow,290,2013-03-17 09:53:00
6:07 AM,21.0,15.1,78,29.96,6.0,WNW,6.9,-,0.00,Snow,Light Snow,290,2013-03-17 10:07:00
6:45 AM,19.9,14.0,78,29.97,10.0,WNW,5.8,-,0.00,,Mostly Cloudy,290,2013-03-17 10:45:00
6:53 AM,19.0,14.0,81,30.05,10.0,WNW,5.8,-,0.00,,Mostly Cloudy,290,2013-03-17 10:53:00
7:31 AM,19.0,14.0,81,30.00,10.0,West,3.5,-,N/A,,Overcast,260,2013-03-17 11:31:00
7:53 AM,19.0,14.0,81,30.08,9.0,West,3.5,-,N/A,,Overcast,260,2013-03-17 11:53:00
8:50 AM,21.2,15.8,80,30.03,2.5,NW,5.8,-,0.00,Snow,Light Snow,310,2013-03-17 12:50:00
8:53 AM,21.9,16.0,78,30.11,2.5,NW,5.8,-,0.00,Snow,Light Snow,310,2013-03-17 12:53:00
9:34 AM,23.0,16.0,74,30.05,3.0,NNW,8.1,-,0.00,Snow,Light Snow,330,2013-03-17 13:34:00
9:41 AM,24.1,16.0,71,30.05,3.0,NNW,8.1,-,0.00,Snow,Light Snow,330,2013-03-17 13:41:00
9:53 AM,24.1,16.0,71,30.12,3.0,NNW,10.4,-,0.00,Snow,Light Snow,330,2013-03-17 13:53:00
10:27 AM,24.1,16.0,71,30.06,2.5,NNW,15.0,21.9,0.00,Snow,Light Snow,330,2013-03-17 14:27:00
10:34 AM,24.1,15.1,69,30.06,6.0,NNW,10.4,21.9,0.00,Snow,Light Snow,340,2013-03-17 14:34:00
10:53 AM,24.1,15.1,69,30.14,3.0,NNW,13.8,-,0.00,Snow,Light Snow,340,2013-03-17 14:53:00
11:53 AM,25.0,15.1,66,30.17,5.0,NNW,9.2,-,0.00,Snow,Light Snow,330,2013-03-17 15:53:00
12:26 PM,26.1,15.1,63,30.10,9.0,WNW,9.2,-,0.00,Snow,Light Snow,300,2013-03-17 16:26:00
12:53 PM,26.1,15.1,63,30.18,8.0,NW,10.4,-,0.00,,Overcast,310,2013-03-17 16:53:00
1:20 PM,27.0,15.1,61,30.10,10.0,NW,10.4,-,N/A,,Overcast,320,2013-03-17 17:20:00
1:31 PM,27.0,12.9,56,30.10,10.0,North,6.9,-,N/A,,Overcast,350,2013-03-17 17:31:00
1:41 PM,27.0,12.9,56,30.10,10.0,NNW,9.2,-,N/A,,Overcast,330,2013-03-17 17:41:00
1:49 PM,28.4,12.2,51,30.10,10.0,NW,9.2,-,N/A,,Overcast,310,2013-03-17 17:49:00
1:53 PM,28.0,12.9,53,30.18,10.0,NW,9.2,-,N/A,,Overcast,310,2013-03-17 17:53:00
2:53 PM,28.9,10.0,45,30.17,10.0,NNW,8.1,-,N/A,,Partly Cloudy,330,2013-03-17 18:53:00
3:53 PM,30.0,8.1,40,30.17,10.0,Calm,Calm,-,N/A,,Clear,0,2013-03-17 19:53:00
4:53 PM,30.0,9.0,41,30.17,10.0,North,-9999.0,-,N/A,,Clear,0,2013-03-17 20:53:00
5:53 PM,30.0,10.0,43,30.19,10.0,NNW,6.9,-,N/A,,Clear,330,2013-03-17 21:53:00
6:53 PM,28.9,9.0,43,30.21,10.0,NNW,5.8,-,N/A,,Clear,340,2013-03-17 22:53:00
7:53 PM,27.0,9.0,47,30.22,10.0,North,3.5,-,N/A,,Clear,360,2013-03-17 23:53:00
8:53 PM,25.0,9.0,51,30.24,10.0,Calm,Calm,-,N/A,,Clear,0,2013-03-18 00:53:00
9:53 PM,23.0,8.1,53,30.26,10.0,Calm,Calm,-,N/A,,Clear,0,2013-03-18 01:53:00
10:53 PM,23.0,10.0,58,30.26,10.0,NE,3.5,-,N/A,,Clear,50,2013-03-18 02:53:00
11:53 PM,21.0,10.0,63,30.25,10.0,East,3.5,-,N/A,,Clear,80,2013-03-18 03:53:00